, AK

(GMT )
Annette Island

Weather History for PANT - December, 2011

Change the Weather History Date:

Saturday, December 10, 2011

  Actual Average Record
Temperature  
Mean Temperature 37 °F 37 °F  
Max Temperature 42 °F 42 °F 78 °F (2005)
Min Temperature 31 °F 33 °F 13 °F (1977)
Degree Days  
Heating Degree Days 28 28  
Month to date heating degree days 268 273  
Since 1 July heating degree days 2516 2323  
Cooling Degree Days 0    
Month to date cooling degree days 0  
Year to date cooling degree days 3  
Moisture  
Dew Point 33 °F    
Average Humidity 0    
Maximum Humidity 0    
Minimum Humidity 0    
Precipitation  
Precipitation 0.07 in 0.36 in 3.56 in (1962)
Month to date precipitation 2.69 3.64  
Year to date precipitation 106.18 94.55  
Snow  
Snow 0.00 in 0.20 in 6.30 in (1977)
Month to date snowfall 0.0 2.2  
Since 1 July snowfall 5.8  
Snow Depth 0.00 in    
Sea Level Pressure  
Sea Level Pressure 30.08 in    
Wind  
Wind Speed 1 mph (NW)    
Max Wind Speed 9 mph    
Max Gust Speed 13 mph    
Visibility 10 miles    
Events Rain    
T = Trace of Precipitation, MM = Missing Value Source: NWS Daily Summary

Daily Weather History Graph

Daily Weather History Graph

Search for Another Location

Airport or City:

Trip Planner

Search our weather history database for the weather conditions in past years. The results will help you decide how hot, cold, wet, or windy it might be!

Date:

Astronomy

Dec. 10, 2011 Rise Set
Actual Time 7:59 AM AKST 3:17 PM AKST
Civil Twilight 7:14 AM AKST 4:03 PM AKST
Nautical Twilight 6:27 AM AKST 4:50 PM AKST
Astronomical Twilight 5:43 AM AKST 5:34 PM AKST
Moon 3:35 PM AKST (12/10) 8:09 AM AKST (12/10)
Length of Visible Light 8h 48m
Length of Day
7h 18m
Full, 100% of the Moon is Illuminated
Dec 10
Full
Dec 17
Last Quarter
Dec 24
New
Dec 31
First Quarter
Jan 8
Full

Hourly Weather History & Observations

Time (AKST) Temp. Windchill Dew Point Humidity Pressure Visibility Wind Dir Wind Speed Gust Speed Precip Events Conditions
12:53 AM 39.0 °F 36.8 °F 37.0 °F 93% 29.91 in 10.0 mi WNW 3.5 mph - 0.00 in   Overcast
1:53 AM 36.0 °F - 35.1 °F 97% 29.93 in 10.0 mi Calm Calm - N/A   Scattered Clouds
2:00 AM 35.6 °F - 33.8 °F 93% 29.93 in 10.0 mi Calm Calm - N/A   Mostly Cloudy
2:07 AM 35.6 °F - 33.8 °F 93% 29.93 in 10.0 mi Calm Calm - N/A   Scattered Clouds
2:53 AM 33.1 °F - 32.0 °F 96% 29.94 in 10.0 mi Calm Calm - N/A   Clear
3:53 AM 33.1 °F - 32.0 °F 96% 29.95 in 10.0 mi Calm Calm - N/A   Mostly Cloudy
4:53 AM 34.0 °F - 33.1 °F 96% 29.96 in 10.0 mi Calm Calm - 0.00 in   Overcast
5:53 AM 32.0 °F - 30.9 °F 96% 29.98 in 10.0 mi Calm Calm - N/A   Clear
6:53 AM 33.1 °F - 30.9 °F 92% 29.99 in 10.0 mi Calm Calm - N/A   Scattered Clouds
7:53 AM 33.1 °F - 30.9 °F 92% 30.01 in 10.0 mi Calm Calm - N/A   Scattered Clouds
8:53 AM 34.0 °F - 32.0 °F 92% 30.03 in 10.0 mi Calm Calm - N/A   Scattered Clouds
9:53 AM 37.9 °F - 36.0 °F 93% 30.05 in 10.0 mi Calm Calm - N/A   Scattered Clouds
10:53 AM 41.0 °F - 37.0 °F 86% 30.06 in 10.0 mi Calm Calm - N/A   Scattered Clouds
11:53 AM 41.0 °F - 35.1 °F 79% 30.07 in 10.0 mi Calm Calm - N/A   Partly Cloudy
12:46 PM 41.0 °F 38.0 °F 33.8 °F 76% 30.07 in 10.0 mi NW 4.6 mph - N/A   Mostly Cloudy
12:53 PM 41.0 °F 38.0 °F 34.0 °F 76% 30.09 in 10.0 mi NW 4.6 mph - N/A   Scattered Clouds
1:53 PM 39.0 °F - 35.1 °F 86% 30.09 in 10.0 mi Calm Calm - N/A   Scattered Clouds
2:53 PM 36.0 °F - 34.0 °F 93% 30.11 in 10.0 mi Calm Calm - N/A   Partly Cloudy
3:53 PM 32.0 °F - 30.9 °F 96% 30.13 in 10.0 mi Calm Calm - N/A   Overcast
4:53 PM 33.1 °F - 32.0 °F 96% 30.15 in 10.0 mi Calm Calm - 0.00 in   Mostly Cloudy
5:41 PM 35.6 °F 32.8 °F 33.8 °F 93% 30.16 in 9.0 mi NW 3.5 mph - 0.01 in Rain Light Rain
5:53 PM 35.1 °F - 34.0 °F 96% 30.17 in 10.0 mi Calm Calm - 0.01 in   Overcast
6:45 PM 35.6 °F - 35.6 °F 100% 30.17 in 10.0 mi Calm Calm - 0.03 in Rain Light Rain
6:53 PM 35.1 °F - 34.0 °F 96% 30.18 in 10.0 mi Calm Calm - 0.03 in   Overcast
7:15 PM 35.6 °F 30.7 °F 33.8 °F 93% 30.18 in 8.0 mi NNW 5.8 mph - 0.02 in Rain Light Rain
7:53 PM 36.0 °F 31.1 °F 35.1 °F 97% 30.20 in 10.0 mi NNW 5.8 mph - 0.03 in   Overcast
8:09 PM 35.6 °F 32.8 °F 33.8 °F 93% 30.20 in 10.0 mi NNW 3.5 mph - N/A   Overcast
8:53 PM 36.0 °F 32.1 °F 34.0 °F 93% 30.21 in 10.0 mi North 4.6 mph - 0.00 in Rain Light Rain
9:53 PM 35.1 °F 32.2 °F 33.1 °F 92% 30.22 in 10.0 mi Variable 3.5 mph - 0.00 in   Clear
10:53 PM 30.9 °F 27.5 °F 30.0 °F 96% 30.24 in 10.0 mi WNW 3.5 mph - N/A   Clear
11:53 PM 32.0 °F 28.7 °F 30.0 °F 92% 30.25 in 10.0 mi North 3.5 mph - N/A   Mostly Cloudy